TimePST,TemperatureF,Dew PointF,Humidity,Sea Level PressureIn,VisibilityMPH,Wind Direction,Wind SpeedMPH,Gust SpeedMPH,PrecipitationIn,Events,Conditions,WindDirDegrees,DateUTC
12:53 AM,19.0,12.9,77,30.03,10.0,Calm,Calm,-,N/A,,Overcast,0,2012-12-30 08:53:00
1:53 AM,17.1,12.0,81,30.04,10.0,Calm,Calm,-,N/A,,Overcast,0,2012-12-30 09:53:00
2:53 AM,16.0,10.9,81,30.04,10.0,South,6.9,-,N/A,,Overcast,190,2012-12-30 10:53:00
3:53 AM,18.0,12.9,81,30.02,10.0,WSW,3.5,-,N/A,,Overcast,250,2012-12-30 11:53:00
4:53 AM,17.1,12.0,81,30.05,10.0,SE,3.5,-,N/A,,Overcast,140,2012-12-30 12:53:00
5:53 AM,15.1,12.9,91,30.06,5.0,South,4.6,-,0.00,Snow,Light Snow,180,2012-12-30 13:53:00
7:53 AM,12.9,10.0,88,30.05,4.0,SSE,4.6,-,0.00,Snow,Light Snow,160,2012-12-30 15:53:00
8:12 AM,12.2,10.4,92,29.91,5.0,South,5.8,-,0.00,,Overcast,180,2012-12-30 16:12:00
8:42 AM,14.0,10.4,86,29.92,10.0,South,6.9,-,0.00,,Scattered Clouds,180,2012-12-30 16:42:00
8:53 AM,15.1,10.0,80,30.05,10.0,North,-9999.0,-,0.00,,Clear,0,2012-12-30 16:53:00
9:25 AM,17.6,12.2,79,29.93,10.0,SSE,5.8,-,N/A,,Mostly Cloudy,160,2012-12-30 17:25:00
9:53 AM,18.0,12.0,78,30.06,10.0,SW,4.6,-,N/A,,Overcast,220,2012-12-30 17:53:00
10:00 AM,19.4,12.2,74,29.94,10.0,Calm,Calm,-,N/A,,Overcast,0,2012-12-30 18:00:00
10:53 AM,19.0,15.1,85,30.05,10.0,North,9.2,-,N/A,,Overcast,10,2012-12-30 18:53:00
11:53 AM,19.9,17.1,89,30.03,10.0,North,15.0,-,N/A,,Overcast,350,2012-12-30 19:53:00
12:53 PM,21.0,16.0,81,30.01,10.0,NNW,16.1,-,N/A,,Mostly Cloudy,340,2012-12-30 20:53:00
1:12 PM,21.2,15.8,80,29.90,10.0,North,16.1,-,N/A,,Mostly Cloudy,360,2012-12-30 21:12:00
1:30 PM,21.2,15.8,80,29.90,10.0,North,16.1,-,N/A,,Mostly Cloudy,360,2012-12-30 21:30:00
1:53 PM,21.9,16.0,78,30.01,10.0,North,17.3,-,N/A,,Overcast,10,2012-12-30 21:53:00
2:53 PM,21.9,16.0,78,30.03,10.0,North,15.0,-,N/A,,Overcast,10,2012-12-30 22:53:00
3:53 PM,19.9,15.1,81,30.02,10.0,NNE,13.8,-,N/A,,Partly Cloudy,20,2012-12-30 23:53:00
4:14 PM,19.4,15.8,86,29.90,10.0,NNE,11.5,-,N/A,,Mostly Cloudy,20,2012-12-31 00:14:00
4:53 PM,19.9,15.1,81,30.04,10.0,NNE,13.8,-,N/A,,Overcast,20,2012-12-31 00:53:00
5:28 PM,17.6,14.0,86,29.93,8.0,North,13.8,-,0.00,Snow,Light Snow,10,2012-12-31 01:28:00
5:53 PM,17.1,12.9,84,30.08,9.0,NNW,13.8,-,0.00,Snow,Light Snow,340,2012-12-31 01:53:00
6:53 PM,17.1,14.0,88,30.10,10.0,North,15.0,-,0.00,,Overcast,360,2012-12-31 02:53:00
7:53 PM,18.0,14.0,84,30.11,10.0,North,16.1,-,N/A,,Overcast,360,2012-12-31 03:53:00
8:53 PM,14.0,10.9,88,30.13,10.0,North,12.7,-,N/A,,Partly Cloudy,350,2012-12-31 04:53:00
9:53 PM,14.0,12.0,92,30.14,10.0,North,12.7,-,N/A,,Overcast,360,2012-12-31 05:53:00
10:53 PM,12.0,9.0,88,30.16,10.0,North,8.1,-,N/A,,Mostly Cloudy,350,2012-12-31 06:53:00
11:53 PM,10.9,9.0,92,30.16,10.0,North,11.5,19.6,N/A,,Overcast,10,2012-12-31 07:53:00